Find Starlink 37347

NORAD ID: 68747 Int'l Des: 2026-082 Owner: SPXS Country: US Constellation: starlink operational
LEOCIRCULARRETROGRADE

Live Position

Loading 3D Globe...

About Starlink 37347

Description loading...

Upcoming Passes

Passes for default location (London). Set your location on the main map for personalized predictions.

Altitude History

Loading altitude history...

Two-Line Element Set

1 68747C 26082U 26105.41715278 .00351540 00000+0 40984-3 0 1053
2 68747 97.2876 326.8396 0010798 268.5930 107.7810 16.08477379 15
Epoch: Apr 15, 2026 • Age: 16 hours

Current Status

Altitude 252.7 km
Velocity 7.76 km/s
Sub-Earth Point 6.39°N, 79.74°W
Launch Date Apr 15, 2026
Age N/A
Type internet

Technical Details

Classification Payload
Mass 575.00 kg
Dry Mass 530.00 kg
Total Mass 575.00 kg
Length 0.30 m
Diameter 4.10 m
Span 29.00 m
Shape Box + pan
Manufacturer SPXS
Bus Type Starlink V2MO
Phase Status In Orbit
Owner/State SPXS/US

Most Searched